Location: Newark
(41.7772°N, 74.7403°W)
Time: 05:56:38
(UTC+00:00)

Transit 4A - All Passes

Search period start: 26 May 2020 00:00
Search period end: 05 June 2020 00:00
Orbit: 869 x 976 km, 66.8° (Epoch: 23 May)

Date Brightness Start Highest point End Pass type
(mag) Time Alt. Az. Time Alt. Az. Time Alt. Az.
26 May - 06:32:48 10° SSE 06:37:43 30° ESE 06:42:43 10° NE visible
26 May - 08:18:17 10° SW 08:23:49 45° NW 08:29:28 10° NNE visible
26 May - 10:10:20 10° NW 10:11:50 11° NNW 10:13:20 10° NNW daylight
26 May - 15:34:03 10° NNW 15:39:44 38° NE 15:45:31 10° ESE daylight
26 May - 17:20:25 10° NW 17:26:05 40° WSW 17:31:51 10° S daylight
27 May - 06:41:23 10° S 06:46:52 45° ESE 06:52:25 10° NE visible
27 May - 08:28:11 10° WSW 08:33:20 32° NW 08:38:36 10° NNE visible
27 May - 13:58:38 10° N 14:01:26 13° NNE 14:04:16 10° ENE daylight
27 May - 15:43:12 10° NNW 15:49:12 54° NE 15:55:20 10° SE daylight
27 May - 17:30:11 10° NW 17:35:13 27° WSW 17:40:20 10° SSW daylight
28 May - 06:50:20 10° SSW 06:56:04 68° ESE 07:01:55 10° NE visible
28 May - 08:38:22 10° W 08:42:57 23° NW 08:47:38 10° N visible
28 May - 14:07:16 10° N 14:11:15 17° NE 14:15:15 10° E daylight
28 May - 15:52:26 10° NNW 15:58:36 77° ENE 16:04:54 10° SE daylight
28 May - 17:40:21 10° WNW 17:44:17 18° WSW 17:48:16 10° SW daylight
29 May - 05:16:51 10° SE 05:19:51 14° ESE 05:22:52 10° ENE visible
29 May - 06:59:33 10° SSW 07:05:22 83° WNW 07:11:18 10° NNE visible
29 May - 08:48:52 10° W 08:52:40 17° NW 08:56:31 10° N visible
29 May - 14:16:09 10° N 14:20:58 23° NE 14:25:51 10° E daylight
29 May - 16:01:47 10° NNW 16:07:56 75° WSW 16:14:13 10° SSE daylight
29 May - 17:51:45 10° W 17:53:17 11° W 17:54:48 10° WSW daylight
30 May - 05:24:28 10° SSE 05:28:52 23° ESE 05:33:19 10° ENE visible
30 May - 07:09:02 10° SW 07:14:44 57° NW 07:20:34 10° NNE visible
30 May - 08:59:47 10° WNW 09:02:28 13° NNW 09:05:11 10° N daylight
30 May - 14:25:11 10° NNW 14:30:35 31° NE 14:36:05 10° ESE daylight
30 May - 16:11:14 10° NW 16:17:11 51° WSW 16:23:14 10° S daylight
31 May - 05:32:47 10° S 05:37:58 34° ESE 05:43:12 10° NE visible
31 May - 07:18:46 10° WSW 07:24:12 39° NW 07:29:45 10° NNE visible
31 May - 12:50:23 10° NNE 12:52:05 11° NNE 12:53:47 10° NE daylight
31 May - 14:34:17 10° NNW 14:40:07 43° NE 14:46:05 10° ESE daylight
31 May - 16:20:52 10° NW 16:26:22 34° WSW 16:31:57 10° S daylight
01 Jun - 05:41:32 10° S 05:47:07 52° ESE 05:52:50 10° NE visible
01 Jun - 07:28:46 10° WSW 07:33:45 28° NW 07:38:50 10° NNE visible
01 Jun - 12:58:39 10° N 13:01:57 15° NE 13:05:17 10° ENE daylight
01 Jun - 14:43:28 10° NNW 14:49:34 62° ENE 14:55:48 10° SE daylight
01 Jun - 16:30:45 10° WNW 16:35:28 23° WSW 16:40:16 10° SSW daylight
02 Jun - 04:10:12 10° ESE 04:11:04 10° E 04:11:58 10° E visible
02 Jun - 05:50:34 10° SSW 05:56:22 78° ESE 06:02:17 10° NNE visible
02 Jun - 07:39:03 10° W 07:43:24 21° NW 07:47:49 10° N visible
02 Jun - 13:07:24 10° N 13:11:43 19° NE 13:16:06 10° E daylight
02 Jun - 14:52:45 10° NNW 14:58:57 87° ENE 15:05:16 10° SSE daylight
02 Jun - 16:41:09 10° WNW 16:44:31 15° WSW 16:47:54 10° SW daylight
03 Jun - 04:16:25 10° SE 04:20:03 17° ESE 04:23:42 10° ENE visible
03 Jun - 05:59:53 10° SW 06:05:41 72° WNW 06:11:37 10° NNE visible
03 Jun - 07:49:41 10° WNW 07:53:08 16° NW 07:56:39 10° N visible
03 Jun - 13:16:21 10° N 13:21:25 26° NE 13:26:33 10° E daylight
03 Jun - 15:02:08 10° NW 15:08:15 65° WSW 15:14:28 10° SSE daylight
04 Jun - 04:24:22 10° SSE 04:29:05 26° ESE 04:33:53 10° NE visible
04 Jun - 06:09:27 10° SW 06:15:05 50° NW 06:20:51 10° NNE visible
04 Jun - 08:00:50 10° NW 08:02:59 12° NNW 08:05:09 10° N visible
04 Jun - 13:25:24 10° NNW 13:31:00 35° NE 13:36:42 10° ESE daylight
04 Jun - 15:11:39 10° NW 15:17:28 44° WSW 15:23:24 10° S daylight
